Home   Weather   Howell   Past weeks

Flag for USA Past Weather in Howell, Michigan, USA — Yesterday and Last 2 Weeks

Now
53 °F

Fog.


Feels Like: 50 °F
Forecast: 48 / 64 °F
Wind: 7 mph from East

Location: Livingston County Airport

Current Time: May 1, 2017 at 2:22:46 am

Latest Report: May 1, 2017 at 1:53 am


Visibility: 1 mi

Pressure: 29.68 "Hg

Humidity: 94%

Dew Point: 51 °F

Location of HowellLocation

Past Weather in Howell — Graph

°F

Howell Temperature Yesterday

Maximum temperature yesterday: 55 °F (at 6:54 pm)
Minimum temperature yesterday: 39 °F (at 2:14 am)
Average temperature yesterday: 46 °F

High & Low Weather Summary for the Past Weeks

 TemperatureHumidityPressure
High82 °F (Apr 26, 4:34 pm)96% (Apr 30, 10:54 pm)30.32 "Hg (Apr 30, 10:54 pm)
Low35 °F (Apr 23, 6:14 am)12% (Apr 23, 4:14 pm)29.44 "Hg (Apr 26, 11:54 pm)
Average55 °F63%29.94 "Hg
* Reported Apr 16 1:14 am — May 1 1:14 am, Howell, Weather by CustomWeather, © 2017

Note: Actual official high and low records may vary slightly from our data, if they occured in-between our weather recording intervals... More about our weather records

Advertising

Howell Weather History for the Previous 24 Hours

Scroll right to see more
 ConditionsComfort  
Time TempWeatherWind HumidityBarometerVisibility
1:14 am
Mon, May 1
49 °FFog.5 mph94%29.71 "Hg2 mi
12:54 am48 °FFog.3 mph95%29.72 "Hg2 mi
12:34 am49 °FFog.6 mph95%29.73 "Hg2 mi
12:13 am48 °FFog.No wind95%29.73 "Hg2 mi
11:54 pm
Sun, Apr 30
48 °FFog.6 mph95%29.74 "Hg2 mi
11:33 pm49 °FRain. Low clouds.6 mph95%29.75 "Hg2 mi
11:14 pm48 °FLight rain. Low clouds.5 mph94%29.76 "Hg3 mi
10:54 pm47 °FLight rain. Low clouds.6 mph96%29.78 "Hg2 mi
10:34 pm47 °FLight rain. Low clouds.5 mph95%29.79 "Hg1 mi
10:14 pm47 °FRain. Low clouds.5 mph95%29.79 "Hg1 mi
9:54 pm48 °FLight rain. Low clouds.5 mph95%29.79 "Hg1 mi
9:34 pm48 °FLight rain. Low clouds.6 mph94%29.80 "Hg1 mi
9:14 pm48 °FFog.5 mph94%29.81 "Hg1 mi
8:34 pm49 °FFog.3 mph94%29.83 "Hg1 mi
8:14 pm50 °FFog.6 mph92%29.82 "Hg1 mi
7:54 pm54 °FFog.3 mph91%29.83 "Hg2 mi
7:34 pm55 °FFog.No wind91%29.83 "Hg3 mi
7:14 pm55 °FFog.No wind91%29.82 "Hg3 mi
6:54 pm55 °FLight rain. Low clouds.No wind91%29.81 "Hg2 mi
6:34 pm55 °FFog.6 mph92%29.81 "Hg2 mi
6:13 pm54 °FFog.5 mph92%29.80 "Hg2 mi
5:54 pm53 °FLight rain. Low clouds.6 mph93%29.82 "Hg2 mi
5:34 pm52 °FRain. Low clouds.5 mph92%29.84 "Hg1 mi
5:14 pm51 °FDrizzle. Low clouds.5 mph92%29.85 "Hg1 mi
4:54 pm51 °FLight rain. Low clouds.6 mph94%29.85 "Hg1 mi
4:33 pm50 °FRain. Low clouds.6 mph93%29.84 "Hg2 mi
4:14 pm50 °FLight rain. Low clouds.5 mph92%29.84 "Hg2 mi
3:34 pm49 °FFog.9 mph92%29.85 "Hg4 mi
3:14 pm48 °FDrizzle. Low clouds.7 mph93%29.87 "Hg5 mi
2:54 pm48 °FFog.6 mph92%29.88 "Hg5 mi
2:34 pm47 °FDrizzle. Low clouds.3 mph92%29.88 "Hg5 mi
2:14 pm47 °FDrizzle. Low clouds.8 mph91%29.88 "Hg4 mi
1:53 pm46 °FDrizzle. Low clouds.9 mph90%29.90 "Hg5 mi
1:34 pm46 °FLight rain. Low clouds.6 mph91%29.91 "Hg5 mi
1:14 pm45 °FLight rain. Low clouds.12 mph91%29.90 "Hg4 mi
12:54 pm45 °FLight rain. Low clouds.8 mph92%29.92 "Hg4 mi
12:34 pm44 °FRain. Low clouds.9 mph90%29.93 "Hg5 mi
12:14 pm44 °FLight rain. Low clouds.10 mph91%29.93 "Hg5 mi
11:54 am44 °FLight rain. Overcast.9 mph90%29.95 "Hg7 mi
11:34 am43 °FLight rain. Overcast.10 mph90%29.95 "Hg4 mi
11:13 am44 °FRain. Overcast.7 mph87%29.98 "Hg7 mi
10:54 am44 °FOvercast.9 mph85%29.97 "Hg10 mi
10:34 am44 °FOvercast.12 mph86%29.97 "Hg10 mi
10:14 am44 °FOvercast.14 mph86%29.98 "Hg10 mi
9:54 am44 °FOvercast.12 mph85%29.99 "Hg10 mi
9:34 am44 °FOvercast.10 mph86%30.00 "Hg10 mi
8:54 am43 °FOvercast.9 mph86%30.02 "Hg10 mi
8:34 am43 °FOvercast.7 mph86%30.04 "Hg10 mi
7:54 am43 °FOvercast.7 mph86%30.03 "Hg10 mi
7:34 am43 °FOvercast.5 mph87%30.04 "Hg10 mi
7:14 am43 °FOvercast.8 mph89%30.03 "Hg10 mi
6:53 am43 °FOvercast.9 mph89%30.03 "Hg10 mi
6:34 am43 °FLight rain. Overcast.12 mph89%30.03 "Hg10 mi
6:14 am43 °FMostly cloudy.7 mph86%30.04 "Hg10 mi
5:54 am43 °FMostly cloudy.12 mph87%30.03 "Hg10 mi
5:34 am43 °FMostly cloudy.10 mph89%30.03 "Hg10 mi
5:14 am42 °FOvercast.10 mph88%30.03 "Hg10 mi
4:54 am42 °FMostly cloudy.10 mph90%30.02 "Hg10 mi
4:33 am42 °FMostly cloudy.9 mph88%30.03 "Hg10 mi
4:14 am41 °FMostly cloudy.8 mph91%30.04 "Hg10 mi
3:54 am41 °FMostly cloudy.7 mph90%30.05 "Hg10 mi
3:34 am40 °FLight rain. Mostly cloudy.10 mph91%30.08 "Hg10 mi
3:14 am40 °FLight rain. Partly cloudy.10 mph92%30.07 "Hg10 mi
2:54 am39 °FLight rain. Overcast.12 mph93%30.08 "Hg10 mi
2:34 am40 °FLight rain. Overcast.6 mph89%30.13 "Hg7 mi
2:14 am39 °FLight rain. Mostly cloudy.No wind88%30.15 "Hg2 mi
Weather by CustomWeather, © 2017

See weather overviewHow to use our weather pages